TimeCST,TemperatureF,Dew PointF,Humidity,Sea Level PressureIn,VisibilityMPH,Wind Direction,Wind SpeedMPH,Gust SpeedMPH,PrecipitationIn,Events,Conditions,WindDirDegrees,DateUTC
12:53 AM,3.9,-2.0,76,30.32,10.0,North,10.4,-,N/A,,Clear,350,2012-12-25 06:53:00
1:53 AM,1.9,-2.9,80,30.33,10.0,NNW,10.4,-,N/A,,Clear,340,2012-12-25 07:53:00
2:53 AM,1.0,-4.0,79,30.35,10.0,North,11.5,-,N/A,,Clear,350,2012-12-25 08:53:00
3:53 AM,1.0,-4.0,79,30.36,10.0,North,11.5,-,N/A,,Clear,350,2012-12-25 09:53:00
4:53 AM,-0.0,-5.1,79,30.38,10.0,NNW,10.4,-,N/A,,Clear,340,2012-12-25 10:53:00
5:53 AM,-0.0,-5.1,79,30.39,10.0,North,11.5,-,N/A,,Clear,350,2012-12-25 11:53:00
6:53 AM,-0.0,-5.1,79,30.40,10.0,North,11.5,-,N/A,,Clear,350,2012-12-25 12:53:00
7:53 AM,-0.0,-5.1,79,30.43,10.0,North,8.1,-,N/A,,Clear,350,2012-12-25 13:53:00
8:53 AM,-0.0,-5.1,79,30.45,10.0,North,9.2,-,N/A,,Clear,350,2012-12-25 14:53:00
9:53 AM,3.0,-2.9,76,30.48,10.0,NNW,11.5,-,N/A,,Clear,340,2012-12-25 15:53:00
10:53 AM,5.0,-0.9,76,30.50,10.0,North,9.2,-,N/A,,Clear,350,2012-12-25 16:53:00
11:53 AM,6.1,-0.0,76,30.49,10.0,North,11.5,-,N/A,,Clear,350,2012-12-25 17:53:00
12:53 PM,7.0,1.0,77,30.43,10.0,North,13.8,-,N/A,,Clear,360,2012-12-25 18:53:00
1:53 PM,8.1,1.9,76,30.40,10.0,North,12.7,-,N/A,,Clear,350,2012-12-25 19:53:00
2:53 PM,9.0,3.0,77,30.45,10.0,NNW,8.1,-,N/A,,Clear,340,2012-12-25 20:53:00
3:53 PM,9.0,3.0,77,30.44,10.0,NNW,13.8,-,N/A,,Clear,340,2012-12-25 21:53:00
4:53 PM,8.1,3.0,80,30.46,10.0,NNW,15.0,-,N/A,,Clear,340,2012-12-25 22:53:00
5:53 PM,8.1,3.0,80,30.47,10.0,North,13.8,-,N/A,,Clear,350,2012-12-25 23:53:00
6:53 PM,8.1,3.0,80,30.45,10.0,North,16.1,-,N/A,,Clear,350,2012-12-26 00:53:00
7:53 PM,8.1,1.9,76,30.43,10.0,North,19.6,24.2,N/A,,Clear,350,2012-12-26 01:53:00
8:53 PM,7.0,1.9,80,30.41,10.0,North,15.0,-,N/A,,Clear,350,2012-12-26 02:53:00
9:53 PM,7.0,1.9,80,30.39,10.0,North,11.5,-,N/A,,Clear,350,2012-12-26 03:53:00
10:53 PM,7.0,1.9,80,30.39,10.0,North,8.1,-,N/A,,Clear,10,2012-12-26 04:53:00
11:53 PM,6.1,1.9,83,30.40,10.0,North,5.8,-,N/A,,Clear,360,2012-12-26 05:53:00